{"data":{"norad_id":64949,"intl_designator":"2025-158T","name":"STARLINK-34689","alt_names":[],"object_type":"PAYLOAD","status":"ACTIVE","operator":null,"country":"US","launch_date":"2025-07-27","launch_site_code":"AFWTR","launch_vehicle":null,"mission":null,"orbit_class":"UNKNOWN","rcs_meters":null,"size_class":null,"mass_kg":null,"dimensions":null,"purposes":["comms"],"wikipedia_slug":null,"has_3d_model":false,"image_url":null,"decayed_at":null,"tle_current":{"epoch":"2026-05-25T03:01:11.428608Z","epoch_age_seconds":74618,"freshness":"FRESH","line1":"1 64949U 25158T   26145.12582672  .00002857  00000+0  20195-3 0  9995","line2":"2 64949  97.4495   8.9915 0002605  88.8506 271.3020 15.05657124 46856","mean_motion":15.05657124,"eccentricity":0.0002605,"inclination_deg":97.4495,"raan_deg":8.9915,"arg_perigee_deg":88.8506,"mean_anomaly_deg":271.302,"bstar":0.00020195,"rev_number":4685,"period_min":95.639304397168,"perigee_km":547.68465530989,"apogee_km":551.29394861322,"semimajor_km":6927.6263019616,"source":"CELESTRAK","updated_at":"2026-05-25T13:38:20.634247Z"}}}